Regional Weather Roundup
Issued by NWS Charleston, SC

Current Version | Previous Version | Graphics & Text | Print | Product List | Glossary On
Versions: 1 2 3 4 5 6 7 8 9 10 11 12 13 14 15 16 17 18 19 20 21 22 23 24 25 26 27 28 29 30 31 32 33 34 35 36 37 38 39 40 41 42 43 44 45 46 47 48 49 50
386
ASUS42 KCHS 290028
RWRCHS

REGIONAL WEATHER ROUNDUP
NATIONAL WEATHER SERVICE CHARLESTON SC
800 PM EDT WED SEP 28 2016

NOTE: "FAIR" INDICATES FEW OR NO CLOUDS BELOW 12,000 FEET WITH NO
SIGNIFICANT WEATHER AND/OR OBSTRUCTIONS TO VISIBILITY.

NOT ALL STATIONS ARE QUALITY CONTROLLED. USE DATA WITH CAUTION...
ESPECIALLY DEWPOINT OBSERVATIONS.

SCZ027-030-031-034>040-042>050-290100-
...SOUTHEAST SOUTH CAROLINA...

CITY           SKY/WX    TMP DP  RH WIND       PRES   REMARKS
N CHARLESTON   PTCLDY    80  74  81 S8        29.93R
6HR MIN TEMP:  80; 6HR MAX TEMP:  89;

WATERFRONT PRK   N/A     81  77  88 S9        29.90S
MOUNT PLEASANT FAIR      81  75  83 S7        29.95R
JOHNS ISLAND   FAIR      81  77  89 S9        29.94R
PINOPOLIS        N/A     81  72  74 VRB3      29.85R
MONCKS CORNER  FAIR      77  72  83 S3        29.93R
SUMMERVILLE    NOT AVBL
BEAUFORT MCAS  PTCLDY    82  73  74 S5        29.93R
6HR MIN TEMP:  82; 6HR MAX TEMP:  90;

BEAUFORT ARPT  FAIR      79  73  83 S7        29.93R
HILTON HEAD IS PTCLDY    81  75  83 S9        29.94
WALTERBORO     CLEAR     79  75  89 SE5       29.94R
ALLENDALE      FAIR      81  72  74 SE6       29.90R

...SOUTHERN MIDLANDS AND PEE DEE...

CITY           SKY/WX    TMP DP  RH WIND       PRES   REMARKS
GEORGETOWN     FAIR      75  72  88 CALM      29.96R
KINGSTREE      FAIR      77  70  78 SE7       29.93R
ORANGEBURG     CLEAR     79  70  74 S6        29.91R
6HR MIN TEMP:  79; 6HR MAX TEMP:  89;

BARNWELL       NOT AVBL
AIKEN          FAIR      75  68  78 S5        29.93R
MANNING        FAIR      79  72  78 S3        29.92R
COLUMBIA       PTCLDY    80  70  71 S3        29.88R
6HR MIN TEMP:  80; 6HR MAX TEMP:  91; 6HR PCP:  0.13;

SUMTER         PTCLDY    80  69  68 S8        29.87S
6HR MIN TEMP:  80; 6HR MAX TEMP:  91;

FLORENCE       CLEAR     79  71  76 S9        29.92R
6HR MIN TEMP:  79; 6HR MAX TEMP:  89;

MYRTLE BEACH   NOT AVBL
N MYRTLE BEACH CLEAR     80  73  79 S9        29.94S
6HR MIN TEMP:  80; 6HR MAX TEMP:  84;


$$

GAZ063-065-086>088-099>101-113>116-118-119-134>141-150-290100-
...SOUTHEAST GEORGIA...

CITY           SKY/WX    TMP DP  RH WIND       PRES   REMARKS
SAVANNAH ARPT  MOCLDY    81  71  71 S12       29.93R
6HR MIN TEMP:  81; 6HR MAX TEMP:  91;

HUNTER AAF     CLEAR     81  78  90 S8        29.91R
6HR MIN TEMP:  81; 6HR MAX TEMP:  89;

FORT STEWART   PTCLDY    81  70  68 SE3       29.91R
6HR MIN TEMP:  81; 6HR MAX TEMP:  91;

STATESBORO     PTCLDY    80  72  75 S5        29.92R
SYLVANIA       NOT AVBL
CLAXTON        FAIR      76  76 100 CALM      29.92S

...CSRA...CENTRAL AND FAR SOUTHEAST GEORGIA...

CITY           SKY/WX    TMP DP  RH WIND       PRES   REMARKS
THOMSON        MOCLDY    80  70  69 CALM      29.94R
AUGUSTA-BUSH   PTCLDY    80  69  69 S7        29.87S
6HR MIN TEMP:  80; 6HR MAX TEMP:  91; 6HR PCP: TRACE;

AUGUSTA-DANIEL PTCLDY    84  67  56 S6        29.89S
SWAINSBORO     FAIR      79  70  73 S3        29.92R
VIDALIA        LGT RAIN  81  73  78 CALM      29.93R
EASTMAN        FAIR      82  62  50 CALM      29.94S
HAZLEHURST     FAIR      83  72  68 N7        29.92R
ALMA           CLEAR     81  71  71 S7        29.93R
6HR MIN TEMP:  81; 6HR MAX TEMP:  91;

WAYCROSS       CLEAR     82  75  79 SW5       29.95R
JESUP          FAIR      81  75  83 SW5       29.94R
BAXLEY         FAIR      81  75  83 SW8       29.93R
BRUNSWICK      PTCLDY    81  73  78 SW7       29.95S
SAINT SIMONS   PTCLDY    82  72  71 SW8       29.94R
6HR MIN TEMP:  82; 6HR MAX TEMP:  87;


$$

SCZ027-028-034-036>038-045-046-048>050-GAZ119-141-290100-
...LAKE AND SUPPLEMENTAL COASTAL OBSERVATIONS...

STATION/POSITION TIME  TEMP    WIND        PRES    WAVE   SWELL
                       AIR SEA DIR/SP/G            HT/PER HT/PER/DIR
                 (UTC) (F)     (DEG/KT/KT) (MB)    (FT/S) (FT/S/D)
WINYAH BAY       2345   80     190/  7     1013.0S
LAKE MURRAY      2330   83     180/ 13/ 16 1010.8S
ACE BASIN NERRS  2345   80     160/  1     1013.0S
FORT PULASKI     0000   81 82  160/  7/ 12 1014.1
SAPELO ISLAND    0000   82     180/ 11     1014.0

$$

ANZ835-935-AMZ111-154-330-350-352-354-370-450-454-472-290100-
...C-MAN AND BUOY OBSERVATIONS...

STATION/POSITION TIME  TEMP    WIND        PRES    WAVE   SWELL
                       AIR SEA DIR/SP/G            HT/PER HT/PER/DIR
                 (UTC) (F)     (DEG/KT/KT) (MB)    (FT/S) (FT/S/D)
BUOY 41004       2350   82 83  190/ 10/ 12 1013.4R   2/11   2/140/11
BUOY 41008       2350   82 82  170/ 14/ 16 1013.5R   2/12   2/ 80/12
FOLLY BEACH CMAN 0000   81     180/ 15/ 17 1013.9R
CAPERS NEARSHORE 0008   81 82  200/ 14/ 19 1013.8R
FRIPP NEARSHORE  0008   81 81  180/ 16/ 21 1013.5R


STATION/POSITION TIME  TEMP    WIND        PRES    WAVE   SWELL
                       AIR SEA DIR/SP/G            HT/PER HT/PER/DIR
                 (UTC) (F)     (DEG/KT/KT) (MB)    (FT/S) (FT/S/D)
5E ST. MARYS GA  0001      82                N/A     2/13   2/100/13
FRYING PAN BUOY  0010   81 82  160/ 10/ 12 1015.0
BUOY 41025       2350   80 84  120/  6/  8 1015.7R   4/ 7   3/ 90/ 7
CAPE LOOKOUT NC  0000   80     140/  8/  9 1015.4R
BUOY 41002       2350   82 83  210/ 14/ 16 1015.6R   5/ 6   3/ 60/11
BUOY 41010       NOT AVBL
ST AUGUSTINE FL  0000   76 84  230/  6/  8 1016.2R


$$




USA.gov is the U.S. government's official web portal to all federal, state and local government web resources and services.